[[{"header":{"parameterUnit":"m.s-1","parameterCategory":1,"la1":30.2991,"la2":30.254,"lo1":-89.0895,"lo2":-89.0444,"dy":0.0017,"dx":0.0017,"nx":28,"ny":28,"refTime":"2025-06-07T21:00:00:Z","depth":0,"parameterNumber":2,"parameterNumberName":"U-component_of_WINDS"},"data":[0,0,0,0,0,0,0,0,0,0,0,0,0,0,0,0,0,0,0,0,0,0,0,0,0,0,0,0,0,0,0,0,0,0,0,0,0,0,0,0,0,0,0,0,0,0,0,0,0,0,0,0,0,0,0,0,0,0,4.5665,4.5667,0,4.5853,4.5855,4.5857,4.5844,4.5841,4.5838,4.5836,4.6029,4.6036,4.6044,0,0,0,0,0,0,0,0,0,0,0,0,0,4.5293,4.53,4.5665,4.5667,4.567,4.5853,4.5855,4.5858,4.5844,4.5841,4.5838,4.5834,4.6026,4.6035,4.6045,0,0,0,0,0,0,0,0,0,0,0,0,0,4.5465,4.5303,4.5665,4.5685,4.5689,4.5852,4.5855,4.5858,4.5845,4.5841,4.5837,4.5833,4.6023,4.6034,4.6046,4.6201,0,0,4.6081,4.6086,0,0,0,0,0,0,0,0,4.5456,4.5479,4.568,4.5684,4.5688,4.5821,4.5795,4.5973,4.5846,4.5786,4.5836,4.5831,4.5963,4.5979,4.6024,4.621,4.6219,4.6082,4.6089,4.6094,4.6098,0,0,0,0,0,0,0,4.5444,4.5471,4.5739,4.5683,4.5688,4.5684,4.5704,4.5829,4.5896,4.5791,4.579,4.5813,4.5965,4.6013,4.6028,4.6221,4.6082,4.6092,4.61,4.6104,4.6541,4.6545,0,0,0,0,0,0,4.5427,4.5461,4.5733,4.5745,4.5559,4.5694,4.5717,4.5783,4.5894,4.5907,4.5816,4.5811,4.5995,4.6015,4.6035,4.6221,4.6094,4.6105,4.6112,4.6536,4.6542,4.6547,0,0,0,0,0,0,4.5419,4.5452,4.5726,4.5603,4.5638,4.5705,4.5779,4.5788,4.5836,4.5913,4.5925,4.5853,4.5992,4.6019,4.6159,4.6227,4.611,4.6121,4.6531,4.6538,4.6544,4.6596,0,0,0,0,0,0,4.5409,4.5449,4.5509,4.5604,4.5644,4.5847,4.5784,4.5795,4.5856,4.5852,4.5951,4.5963,4.5991,4.6142,4.6171,4.6241,4.613,4.6525,4.6534,4.6542,4.6588,4.6604,4.6617,0,0,0,0,0,4.5396,4.5517,4.5512,4.5545,4.5721,4.5851,4.5874,4.5903,4.5862,4.5922,4.5971,4.596,4.6216,4.6156,4.6189,4.6264,4.6521,4.6531,4.6542,4.6582,4.6601,4.6617,0,0,0,0,0,0,4.5429,4.553,4.5526,4.5682,4.5758,4.5849,4.5926,4.5923,4.6013,4.6005,4.6038,4.606,4.62,4.6247,4.6179,4.6418,4.6363,4.638,4.6382,4.6401,4.6415,4.64,4.614,0,0,0,0,0,4.5455,4.5552,4.5635,4.5765,4.5803,4.5858,4.5916,4.5932,4.6012,4.6044,4.6104,4.6182,4.6279,4.6343,4.6438,4.6596,4.6615,4.6663,4.6678,4.6689,4.6703,4.6786,4.6807,4.6581,4.6581,4.6581,0,0,4.5508,4.5576,4.5636,4.5774,4.5834,4.5933,4.5886,4.5994,4.6067,4.6061,4.6196,4.6243,4.6332,4.6481,4.6549,4.6524,4.677,4.6702,4.6711,4.6719,4.6799,4.682,4.6839,4.6588,4.6587,4.6586,0,0,4.5656,4.5718,4.5831,4.5893,4.5985,4.602,4.6047,4.6139,4.6169,4.6305,4.6301,4.6389,4.6558,4.662,4.6674,4.6844,4.6835,4.6874,4.6947,4.7028,4.7046,4.7062,4.7119,4.7139,4.6888,4.6888,4.6888,0,4.5711,4.5861,4.589,4.5998,4.6057,4.6056,4.6169,4.6228,4.6346,4.6387,4.6357,4.6566,4.6626,4.6788,4.6829,4.6874,4.6904,4.6861,4.7041,4.7058,4.7073,4.7127,4.7149,4.6892,4.6891,4.6891,4.6891,0,4.5922,4.6026,4.6106,4.6219,4.6288,4.6399,4.6443,4.651,4.6519,4.6557,4.6694,4.6766,4.6873,4.6914,4.6925,4.7077,4.7057,4.7034,4.6978,4.7097,4.7149,4.7171,4.6897,4.6896,4.6895,4.6894,0,0,4.6096,4.6222,4.6251,4.63,4.6401,4.6482,4.6591,4.6695,4.675,4.6832,4.6923,4.7064,4.7042,4.7103,4.7122,4.7193,4.7318,4.7161,4.7163,4.7184,4.7485,4.75,4.7524,4.7314,4.7318,4.7322,4.7477,0,4.6252,4.6445,4.6473,4.6644,4.6738,4.6737,4.6832,4.6903,4.6942,4.7027,4.7069,4.7167,4.7133,4.7169,4.724,4.7288,4.7378,4.7277,4.7397,4.7401,4.7371,4.7551,4.7568,4.771,4.7497,4.7501,4.7503,0,4.6459,4.6544,4.6723,4.6808,4.6849,4.6934,4.7029,4.7112,4.7192,4.7215,4.7282,4.7291,4.7402,4.7344,4.7497,4.7427,4.7478,4.7509,4.7515,4.7525,4.7457,4.7563,4.7757,4.7777,4.7536,4.7534,4.7531,0,4.6563,4.6723,4.685,4.6893,4.6996,4.7055,4.7101,4.7177,4.7237,4.7321,4.736,4.7456,4.7509,4.7583,4.7617,4.7571,4.7767,4.7712,4.7786,4.7785,4.7826,4.7822,4.8027,4.7864,4.7863,4.7863,4.7863,0,4.6732,4.6841,4.6898,4.6975,4.7096,4.7128,4.7247,4.729,4.7358,4.7443,4.745,4.7529,4.7571,4.7656,4.7684,4.7804,4.7829,4.7849,4.7855,4.7847,4.7844,4.7878,4.7868,4.7869,4.7868,4.7866,4.7865,0,4.6868,4.6911,4.7049,4.7134,4.7158,4.7243,4.7316,4.7391,4.7428,4.7536,4.7563,4.7621,4.7722,4.7764,4.7889,4.7907,4.8044,4.8044,4.8017,4.8018,4.8089,4.808,4.8321,4.8352,4.8171,4.8173,4.8174,0,4.6972,4.7055,4.7149,4.7206,4.7253,4.7345,4.7405,4.7439,4.7502,4.7598,4.766,4.7761,4.7843,4.8004,4.8058,4.8152,4.8152,4.823,4.8166,4.8154,4.8149,4.8142,4.8149,4.824,4.8242,4.8244,4.8245,0,4.7149,4.7165,4.7252,4.7346,4.7417,4.7493,4.7566,4.7613,4.7658,4.7727,4.783,4.7893,4.8019,4.8118,4.8215,4.8261,4.826,4.8265,4.8286,4.8278,4.8257,4.8265,4.8045,4.8259,4.8257,4.8256,4.8255,4.8255,4.727,4.7342,4.7418,4.7514,4.7572,4.764,4.7714,4.7759,4.7845,4.7949,4.7965,4.8073,4.8149,4.8279,4.833,4.8414,4.8394,4.8427,4.8435,4.8441,4.8444,4.8246,4.8433,4.8433,4.8432,4.8432,4.8432,0,4.7444,4.7493,4.758,4.7682,4.7756,4.7749,4.7829,4.7892,4.7987,4.8058,4.8138,4.8254,4.835,4.841,4.8506,4.8562,4.8563,4.8586,4.858,4.859,4.8458,4.8428,4.8583,4.8583,4.8582,4.8582,4.8582,4.8582,4.7543,4.7664,4.7689,4.7839,4.7887,4.7993,4.8039,4.8101,4.8157,4.8286,4.8365,4.8403,4.8469,4.857,4.8656,4.8671,4.8705,4.8728,4.8741,4.8616,4.86,4.8585,4.8557,4.8736,4.8736,4.8866,4.8867,4.8868]},{"header":{"parameterUnit":"m.s-1","parameterCategory":1,"la1":30.2991,"la2":30.254,"lo1":-89.0895,"lo2":-89.0444,"dy":0.0017,"dx":0.0017,"nx":28,"ny":28,"refTime":"2025-06-07T21:00:00:Z","depth":0,"parameterNumber":3,"parameterNumberName":"V-component_of_WINDS"},"data":[0,0,0,0,0,0,0,0,0,0,0,0,0,0,0,0,0,0,0,0,0,0,0,0,0,0,0,0,0,0,0,0,0,0,0,0,0,0,0,0,0,0,0,0,0,0,0,0,0,0,0,0,0,0,0,0,0,0,2.6993,2.6994,0,2.7043,2.7044,2.7044,2.7005,2.7004,2.7002,2.7,2.7051,2.7054,2.7056,0,0,0,0,0,0,0,0,0,0,0,0,0,2.6864,2.6866,2.6993,2.6994,2.6995,2.7043,2.7044,2.7044,2.7006,2.7004,2.7002,2.7,2.705,2.7053,2.7057,0,0,0,0,0,0,0,0,0,0,0,0,0,2.6917,2.6867,2.6993,2.6981,2.6981,2.7043,2.7044,2.7044,2.7006,2.7004,2.7001,2.6999,2.7049,2.7053,2.7057,2.7134,0,0,2.707,2.7072,0,0,0,0,0,0,0,0,2.6914,2.6922,2.6982,2.6982,2.6982,2.7015,2.7016,2.7074,2.7007,2.6996,2.7,2.6998,2.7041,2.7046,2.7061,2.7136,2.7138,2.7071,2.7073,2.7075,2.7076,0,0,0,0,0,0,0,2.6911,2.692,2.7013,2.6983,2.6983,2.6973,2.6978,2.7027,2.7032,2.6997,2.6994,2.7001,2.704,2.7056,2.7061,2.7139,2.7071,2.7074,2.7077,2.7079,2.7278,2.7281,0,0,0,0,0,0,2.6908,2.6917,2.7011,2.7014,2.6941,2.6977,2.6983,2.7007,2.7031,2.7033,2.7003,2.6999,2.705,2.7056,2.7063,2.7153,2.7075,2.7079,2.7082,2.7275,2.7279,2.7282,0,0,0,0,0,0,2.6906,2.6917,2.7009,2.6965,2.6976,2.6982,2.701,2.7009,2.7025,2.7036,2.7036,2.7019,2.7049,2.7057,2.7116,2.7155,2.7081,2.7085,2.7272,2.7276,2.728,2.7335,0,0,0,0,0,0,2.6902,2.6916,2.6946,2.6966,2.6978,2.7062,2.7012,2.7012,2.7033,2.7028,2.7051,2.7052,2.7047,2.711,2.712,2.7159,2.7089,2.7269,2.7274,2.7279,2.733,2.7341,2.735,0,0,0,0,0,2.6897,2.696,2.6948,2.6959,2.7016,2.7065,2.7072,2.7065,2.7036,2.7066,2.7072,2.7051,2.7149,2.7116,2.7128,2.7169,2.7266,2.7273,2.7278,2.7326,2.7339,2.735,0,0,0,0,0,0,2.6944,2.6962,2.6949,2.702,2.7041,2.7058,2.7095,2.7079,2.7109,2.7103,2.7094,2.7099,2.7161,2.7171,2.7134,2.7243,2.7203,2.7211,2.7235,2.7247,2.7257,2.7253,2.7092,0,0,0,0,0,2.6963,2.7001,2.7015,2.7076,2.7087,2.7089,2.711,2.7103,2.7125,2.7134,2.7144,2.7166,2.7201,2.7225,2.7258,2.7331,2.7335,2.7365,2.7374,2.7383,2.739,2.7429,2.7442,2.7301,2.7301,2.7301,0,0,2.7002,2.7016,2.7041,2.7085,2.7101,2.7141,2.7097,2.7141,2.717,2.714,2.7197,2.7205,2.7228,2.7295,2.7324,2.7305,2.743,2.739,2.7397,2.74,2.7436,2.7449,2.7461,2.7306,2.7305,2.7304,0,0,2.7092,2.7108,2.7159,2.7176,2.72,2.7201,2.7213,2.7233,2.7237,2.7293,2.7271,2.7305,2.7367,2.7384,2.74,2.7496,2.7478,2.7507,2.7559,2.7596,2.7607,2.7617,2.7651,2.7663,2.7515,2.7515,2.7515,0,2.7137,2.7197,2.7188,2.7234,2.7253,2.7228,2.728,2.7296,2.733,2.7343,2.7321,2.7396,2.741,2.7479,2.7502,2.7517,2.753,2.7505,2.7606,2.7616,2.7625,2.7657,2.767,2.7518,2.7518,2.7517,2.7517,0,2.725,2.7292,2.7331,2.7364,2.7388,2.7436,2.7434,2.746,2.745,2.7453,2.751,2.7526,2.7561,2.7577,2.7568,2.7645,2.7631,2.7608,2.7567,2.7642,2.7672,2.7684,2.7523,2.7522,2.7521,2.752,0,0,2.7373,2.74,2.7414,2.7428,2.7452,2.7484,2.753,2.7565,2.7586,2.761,2.7648,2.77,2.7678,2.7697,2.769,2.7723,2.7796,2.7695,2.7695,2.7713,2.7881,2.7898,2.7913,2.7784,2.7786,2.7788,2.7879,0,2.7464,2.7546,2.7539,2.7616,2.7654,2.7629,2.767,2.7689,2.7692,2.7724,2.7728,2.7764,2.7733,2.7744,2.7775,2.7781,2.783,2.7774,2.7819,2.7821,2.7814,2.7928,2.7947,2.8032,2.789,2.7892,2.7894,0,2.7582,2.761,2.7691,2.7708,2.7723,2.776,2.779,2.7821,2.7841,2.7842,2.7862,2.7849,2.7895,2.7853,2.7916,2.7879,2.7896,2.7902,2.7905,2.7909,2.7862,2.7935,2.8059,2.8071,2.7912,2.791,2.7909,0,2.7663,2.772,2.7776,2.7788,2.781,2.7836,2.7846,2.7864,2.7885,2.7911,2.7924,2.7956,2.7973,2.7997,2.7992,2.7962,2.8056,2.8014,2.8057,2.8057,2.8078,2.8077,2.8206,2.809,2.809,2.809,2.8089,0,2.7766,2.7816,2.7812,2.7846,2.7901,2.7892,2.7947,2.7954,2.797,2.8004,2.7985,2.8017,2.8009,2.8041,2.8038,2.809,2.8098,2.8099,2.8097,2.8101,2.8101,2.8112,2.8106,2.8093,2.8092,2.8092,2.8091,0,2.7865,2.7864,2.7923,2.7939,2.7944,2.7984,2.7996,2.8028,2.803,2.8073,2.8083,2.8086,2.8122,2.812,2.8162,2.8159,2.8223,2.8215,2.8217,2.8215,2.8258,2.8254,2.8399,2.8417,2.829,2.8291,2.8292,0,2.7931,2.7969,2.7988,2.801,2.8021,2.8057,2.8077,2.807,2.8092,2.8117,2.8146,2.8181,2.8208,2.8268,2.8273,2.8304,2.8296,2.8345,2.8301,2.8303,2.8296,2.8294,2.8297,2.8354,2.8355,2.8356,2.8357,0,2.8047,2.8044,2.8075,2.8106,2.8131,2.8155,2.8177,2.8195,2.819,2.8216,2.8253,2.8274,2.8316,2.8351,2.838,2.839,2.8373,2.8371,2.8383,2.8386,2.8385,2.8386,2.824,2.8368,2.8367,2.8366,2.8365,2.8365,2.8131,2.8163,2.8181,2.8216,2.8231,2.8252,2.8282,2.8287,2.8318,2.8352,2.8345,2.8387,2.8405,2.8443,2.8455,2.8487,2.8469,2.8486,2.849,2.8495,2.8499,2.838,2.8492,2.8492,2.8492,2.8491,2.8491,0,2.8245,2.8256,2.8288,2.8318,2.8345,2.8327,2.8349,2.8373,2.841,2.8428,2.8456,2.8498,2.8531,2.8538,2.857,2.8594,2.8587,2.8602,2.86,2.8603,2.8514,2.85,2.8608,2.8608,2.8608,2.8608,2.8608,2.8608,2.8308,2.8361,2.8361,2.8421,2.8431,2.8472,2.8486,2.8504,2.8519,2.8567,2.8594,2.8599,2.8612,2.8645,2.8674,2.8675,2.8687,2.8706,2.8704,2.8621,2.8609,2.8598,2.8585,2.8709,2.8709,2.8791,2.8791,2.8792]}]]